Date String (YYYY-MM-DD hh:mm:ss) UTC,Instrument flags,Ambient pressure (hPa),Sample flow (lpm),Bypass flow (lpm),Sample temperature (°C),Ambient temperature (°C),ASC tube jacket temperature (°C),LED temperature (°C),Box temperature (°C),Sample RH (%),Span deviation,Mass concentration (μg/m³),Mass concentration (μg/m³),Mass concentration (μg/m³)
DateTimeUTC,F1_M11,P_M11,Q1_M11,Q2_M11,T1_M11,T2_M11,T3_M11,T4_M11,T5_M11,U1_M11,ZSPAN_M11,X2_M11,X0_M11,X1_M11
2022-02-05 16:00:00,,0826.1,5.00,0.00,22.2,21.9,00.0,31.1,24.0,07.0,0000.0,0000.56,0001.15,0000.42
2022-02-05 16:01:00,,0826.0,5.01,0.00,22.2,21.8,00.0,31.1,23.9,07.2,0000.0,0000.57,0001.10,0000.43
2022-02-05 16:02:00,,0826.1,4.99,0.00,22.2,21.7,00.0,31.1,23.8,07.6,0000.0,0000.61,0001.19,0000.44
2022-02-05 16:03:00,,0826.1,5.01,0.00,22.1,21.5,00.0,31.1,23.8,07.7,0000.0,0000.63,0001.23,0000.45
2022-02-05 16:04:00,,0826.1,4.99,0.00,22.1,21.5,00.0,31.1,23.7,07.0,0000.0,0000.65,0001.24,0000.46
2022-02-05 16:05:00,,0826.1,5.01,0.00,22.0,21.4,00.0,31.1,23.7,06.9,0000.0,0000.63,0001.16,0000.46
2022-02-05 16:06:00,,0826.1,5.00,0.00,22.0,21.3,00.0,31.1,23.7,06.9,0000.0,0000.63,0001.18,0000.47
2022-02-05 16:07:00,,0826.1,4.99,0.00,22.0,21.3,00.0,31.1,23.7,06.8,0000.0,0000.64,0001.21,0000.47
2022-02-05 16:08:00,,0826.1,5.02,0.00,22.0,21.3,00.0,31.1,23.7,07.1,0000.0,0000.65,0001.24,0000.46
2022-02-05 16:09:00,,0826.0,5.00,0.00,22.0,21.3,00.0,31.1,23.7,07.1,0000.0,0000.65,0001.13,0000.46
2022-02-05 16:10:00,,0826.0,5.01,0.00,22.0,21.2,00.0,31.1,23.6,06.5,0000.0,0000.63,0001.00,0000.46
2022-02-05 16:11:00,,0826.0,5.00,0.00,21.9,21.1,00.0,31.0,23.5,06.8,0000.0,0000.61,0000.94,0000.45
2022-02-05 16:12:00,,0825.8,5.01,0.00,21.9,21.1,00.0,31.0,23.5,06.7,0000.0,0000.59,0000.90,0000.44
2022-02-05 16:13:00,,0825.8,4.99,0.00,21.9,21.0,00.0,31.0,23.5,06.9,0000.0,0000.57,0000.82,0000.43
2022-02-05 16:14:00,,0826.0,5.01,0.00,21.8,21.0,00.0,31.0,23.4,06.6,0000.0,0000.54,0000.75,0000.42
2022-02-05 16:15:00,,0825.9,5.00,0.00,21.9,21.4,00.0,31.0,23.5,06.9,0000.0,0000.55,0000.84,0000.42
2022-02-05 16:16:00,,0825.8,5.00,0.00,22.0,22.3,00.0,31.0,23.9,07.0,0000.0,0000.59,0001.00,0000.42
2022-02-05 16:17:00,,0825.8,5.00,0.00,22.2,23.0,00.0,31.1,24.1,06.9,0000.0,0000.59,0001.06,0000.41
2022-02-05 16:18:00,,0825.7,5.00,0.00,22.2,22.9,00.0,31.1,24.2,07.4,0000.0,0000.60,0001.47,0000.41
2022-02-05 16:19:00,,0825.8,5.00,0.00,22.2,22.5,00.0,31.1,24.0,07.4,0000.0,0000.63,0001.79,0000.41
2022-02-05 16:20:00,,0825.8,4.99,0.00,22.2,22.2,00.0,31.1,23.9,06.9,0000.0,0000.62,0001.78,0000.41
2022-02-05 16:21:00,,0825.8,5.00,0.00,22.1,21.9,00.0,31.1,23.9,06.7,0000.0,0000.62,0001.78,0000.41
2022-02-05 16:22:00,,0825.7,5.02,0.00,22.1,21.8,00.0,31.1,23.8,06.9,0000.0,0000.62,0001.79,0000.41
2022-02-05 16:23:00,,0825.6,4.98,0.00,22.1,21.6,00.0,31.1,23.8,07.0,0000.0,0000.62,0001.79,0000.41
2022-02-05 16:24:00,,0825.6,5.01,0.00,22.0,21.5,00.0,31.1,23.7,07.0,0000.0,0000.64,0002.12,0000.41
2022-02-05 16:25:00,,0825.7,4.99,0.00,22.0,21.3,00.0,31.1,23.7,07.0,0000.0,0000.66,0002.46,0000.42
2022-02-05 16:26:00,,0825.8,5.01,0.00,22.0,21.2,00.0,31.1,23.6,07.0,0000.0,0000.63,0002.35,0000.41
2022-02-05 16:27:00,,0825.7,5.00,0.00,22.0,21.2,00.0,31.0,23.6,07.4,0000.0,0000.60,0002.23,0000.42
2022-02-05 16:28:00,,0825.6,5.02,0.00,21.9,21.1,00.0,31.0,23.5,07.4,0000.0,0000.61,0002.15,0000.42
2022-02-05 16:29:00,,0825.6,4.99,0.00,21.9,21.0,00.0,31.0,23.5,07.7,0000.0,0000.58,0001.67,0000.42
2022-02-05 16:30:00,,0825.5,4.98,0.00,21.9,20.9,00.0,31.0,23.4,07.6,0000.0,0000.55,0001.36,0000.43
2022-02-05 16:31:00,,0825.5,5.01,0.00,21.9,21.0,00.0,31.0,23.4,07.6,0000.0,0000.55,0001.37,0000.43
2022-02-05 16:32:00,,0825.6,5.00,0.00,21.9,21.7,00.0,31.0,23.6,07.6,0000.0,0000.57,0001.54,0000.43
2022-02-05 16:33:00,,0825.7,5.01,0.00,22.1,22.7,00.0,31.0,24.0,07.6,0000.0,0000.60,0002.14,0000.43
2022-02-05 16:34:00,,0825.7,4.99,0.00,22.2,23.1,00.0,31.1,24.2,07.8,0000.0,0000.61,0002.73,0000.44
2022-02-05 16:35:00,,0825.6,5.00,0.00,22.2,22.8,00.0,31.1,24.1,07.8,0000.0,0000.60,0002.61,0000.43
2022-02-05 16:36:00,,0825.6,5.00,0.00,22.2,22.5,00.0,31.1,24.0,07.1,0000.0,0000.59,0002.30,0000.44
2022-02-05 16:37:00,,0825.7,4.99,0.00,22.2,22.2,00.0,31.1,23.9,06.9,0000.0,0000.60,0002.30,0000.44
2022-02-05 16:38:00,,0825.7,5.00,0.00,22.2,22.0,00.0,31.1,23.8,07.0,0000.0,0000.60,0002.32,0000.44
2022-02-05 16:39:00,,0825.6,5.00,0.00,22.1,21.8,00.0,31.1,23.8,07.1,0000.0,0000.63,0002.40,0000.44
2022-02-05 16:40:00,,0825.6,5.00,0.00,22.1,21.7,00.0,31.1,23.7,07.3,0000.0,0000.65,0002.45,0000.44
2022-02-05 16:41:00,,0825.5,4.99,0.00,22.1,21.6,00.0,31.1,23.7,07.6,0000.0,0000.67,0002.50,0000.45
2022-02-05 16:42:00,,0825.5,5.01,0.00,22.0,21.4,00.0,31.1,23.7,07.5,0000.0,0000.70,0002.79,0000.45
2022-02-05 16:43:00,,0825.5,4.99,0.00,22.0,21.3,00.0,31.1,23.6,07.4,0000.0,0000.70,0002.70,0000.46
2022-02-05 16:44:00,,0825.5,5.00,0.00,22.0,21.2,00.0,31.1,23.6,07.3,0000.0,0000.68,0002.16,0000.46
2022-02-05 16:45:00,,0825.3,5.01,0.00,21.9,21.2,00.0,31.0,23.5,08.0,0000.0,0000.66,0001.51,0000.45
2022-02-05 16:46:00,,0825.4,4.98,0.00,21.9,21.0,00.0,31.0,23.5,08.2,0000.0,0000.66,0001.30,0000.44
2022-02-05 16:47:00,,0825.4,5.01,0.00,21.9,20.9,00.0,31.0,23.5,08.0,0000.0,0000.65,0001.30,0000.44
2022-02-05 16:48:00,,0825.4,5.01,0.00,21.9,20.9,00.0,31.0,23.5,07.7,0000.0,0000.64,0001.29,0000.44
2022-02-05 16:49:00,,0825.4,4.99,0.00,21.9,21.7,00.0,31.0,23.7,07.7,0000.0,0000.67,0001.39,0000.44
2022-02-05 16:50:00,,0825.5,5.00,0.00,22.1,22.6,00.0,31.1,24.0,08.0,0000.0,0000.67,0001.42,0000.44
2022-02-05 16:51:00,,0825.5,5.01,0.00,22.3,23.1,00.0,31.1,24.3,07.6,0000.0,0000.68,0001.42,0000.44
2022-02-05 16:52:00,,0825.5,5.00,0.00,22.3,22.8,00.0,31.1,24.2,07.3,0000.0,0000.70,0001.48,0000.44
2022-02-05 16:53:00,,0825.5,5.00,0.00,22.3,22.5,00.0,31.2,24.1,07.4,0000.0,0000.67,0001.19,0000.44
2022-02-05 16:54:00,,0825.4,4.99,0.00,22.2,22.2,00.0,31.2,24.0,08.0,0000.0,0000.70,0002.39,0000.45
2022-02-05 16:55:00,,0825.4,5.01,0.00,22.2,21.9,00.0,31.2,23.9,08.1,0000.0,0000.73,0003.04,0000.45
2022-02-05 16:56:00,,0825.5,5.00,0.00,22.2,21.7,00.0,31.2,23.9,08.5,0000.0,0000.74,0004.07,0000.46
2022-02-05 16:57:00,,0825.6,4.99,0.00,22.2,21.5,00.0,31.1,23.8,08.1,0000.0,0000.75,0004.78,0000.47
2022-02-05 16:58:00,,0825.7,5.01,0.00,22.1,21.4,00.0,31.1,23.7,07.8,0000.0,0000.74,0004.75,0000.47
2022-02-05 16:59:00,,0825.7,5.00,0.00,22.1,21.3,00.0,31.1,23.6,08.1,0000.0,0000.76,0004.77,0000.47
